PEGASUS R/B, 23106

Orbit data source: Space-Track

PEGASUS R/B, 23106 is space debris in LEO originally from a launch on Thu, 19 May 1994 UTC launched from the Air Force Western Test Range (AFWTR). Debris objects in space refer to the collection of defunct objects orbiting the Earth. Examples of debris include non-operational satellites, rocket bodies, and fragments generated from explosions, collisions, or faulty payload assembly.

Loading next visibility...
Identifier
23106, 1994-029B
Orbit
LEO
Country
Flag of USUS
Related business
Manufacturer
OSC Chandler
Mission
Spacecraft
Bus & Motor
HAPS, Unknown motor
Mass
107 kg wet, 97 kg dry
Launch date (UTC)
1994-05-19 (32 years ago)
Launch vehicle
Unknown
Launch site
Air Force Western Test Range (AFWTR)
Object type
Payload
Rocket body
Debris
Shape & HBR
Cyl, 0.4 m
Radar Cross Section
0.286 m², Small (<0.1 m²)

Expand to show TLE details & history
Last TLE update: 18 hours ago

TLE from 18 hours ago
0 PEGASUS R/B
1 23106U 94029B   26107.05203937  .00000603  00000-0  75291-4 0  9998
2 23106  81.9554 321.0928 0111549 325.5405  33.8605 14.76530701706255
Epoch: 2026-04-17T01:14Z
TLE epoch observation values (Epoch: 2026-04-17T01:14:56.201Z)
Latitude
0.00004°
Longitude
97.16786°
Altitude
578.559 km
Speed
7.606 km/s
True Right ascension
21h 24m 22s
True Declination
0° 00' 00"
Sunlit
Object was in daylight at epoch
Visualization orbit readout
Latitude
Unknown
Longitude
Unknown
Altitude
Unknown
Speed
Unknown
Apparent Right ascension
Unknown
Apparent Declination
Unknown
Sunlit
N/A
Visualization observer readout
Local Sidereal Time
01:43:53
Azimuth
Unknown
Elevation
Unknown
Doppler factor
Unknown
Orbital elements
Apogee altitude
715.605 km
Perigee altitude
559.091 km
Semi-major axis
7,015.485 km
Eccentricity
0.01115
Inclination
81.9554°
RAAN
321.0928°
Arg. of periapsis
325.5405°
True anomaly
34.58103°
Mean anomaly
33.8605°
Eccentric anomaly
34.21993°
Mean motion
3.69366 °/min
Orbital period
97.46 mins
BSTAR
0.000075291
Loading maneuver chart data...
Computing Atmospheric mass density...

Documentation

Showing up to 5 results
|